When you browse on this site, cookies collect data to enhance your experience and personalize the content and advertising you see.
Visit our Privacy Policy to learn more. By continuing to use the site, you agree to this use of cookies and data.

Hourly Weather Samozvanovka

Today, 6 July, Monday

Time Temperature Precipitation Wind Pressure Humidity
00:00 +19°C° 0 mm 1 mps 737 mmHg 93%
01:00 +19°C° 0 mm 1 mps 737 mmHg 93%
02:00 +17°C° 0 mm 2 mps 738 mmHg 89%
03:00 +17°C° 0 mm 2 mps 738 mmHg 90%
04:00 +17°C° 0 mm 2 mps 738 mmHg 91%
05:00 +18°C° 0 mm 2 mps 738 mmHg 92%
06:00 +20°C° 0 mm 1 mps 738 mmHg 87%
07:00 +21°C° 0 mm 1 mps 738 mmHg 83%
08:00 +23°C° 0 mm 1 mps 738 mmHg 78%
09:00 +24°C° 0 mm 1 mps 738 mmHg 74%
10:00 +25°C° 0 mm 1 mps 738 mmHg 69%
11:00 +26°C° 0 mm 1 mps 738 mmHg 64%
12:00 +25°C° 0 mm 0 mps 738 mmHg 62%
13:00 +25°C° 0 mm 0 mps 738 mmHg 60%
14:00 +26°C° 0 mm 0 mps 737 mmHg 58%
15:00 +26°C° 0 mm 0 mps 737 mmHg 60%
16:00 +27°C° 0 mm 1 mps 737 mmHg 63%
17:00 +27°C° 0 mm 1 mps 736 mmHg 65%
18:00 +26°C° 0 mm 1 mps 736 mmHg 70%
19:00 +24°C° 0 mm 1 mps 736 mmHg 74%
20:00 +22°C° 0 mm 1 mps 736 mmHg 79%
21:00 +22°C° 0 mm 1 mps 736 mmHg 81%
22:00 +21°C° 0 mm 1 mps 736 mmHg 83%
23:00 +21°C° 0 mm 1 mps 736 mmHg 85%

Tomorrow, 7 July, Tuesday

Time Temperature Precipitation Wind Pressure Humidity
00:00 +19°C° 0 mm 2 mps 736 mmHg 86%
01:00 +19°C° 0 mm 2 mps 736 mmHg 87%
02:00 +19°C° 0 mm 2 mps 736 mmHg 88%
03:00 +19°C° 0 mm 2 mps 736 mmHg 89%
04:00 +20°C° 0 mm 2 mps 735 mmHg 90%
05:00 +20°C° 0 mm 2 mps 735 mmHg 91%
06:00 +22°C° 0 mm 3 mps 735 mmHg 87%
07:00 +24°C° 0 mm 3 mps 735 mmHg 84%
08:00 +26°C° 0 mm 4 mps 735 mmHg 81%
09:00 +27°C° 0.9 mm 4 mps 735 mmHg 77%
10:00 +29°C° 0.9 mm 4 mps 734 mmHg 73%
11:00 +30°C° 0.9 mm 4 mps 734 mmHg 69%
12:00 +30°C° 0.1 mm 4 mps 734 mmHg 68%
13:00 +30°C° 0.1 mm 4 mps 733 mmHg 68%
14:00 +32°C° 0.1 mm 4 mps 733 mmHg 67%
15:00 +30°C° 0.6 mm 4 mps 733 mmHg 71%
16:00 +29°C° 0.6 mm 3 mps 733 mmHg 75%
17:00 +29°C° 0.6 mm 3 mps 732 mmHg 79%
18:00 +28°C° 0.2 mm 3 mps 732 mmHg 81%
19:00 +26°C° 0.2 mm 3 mps 732 mmHg 83%
20:00 +25°C° 0.2 mm 3 mps 732 mmHg 85%
21:00 +24°C° 0 mm 3 mps 732 mmHg 84%
22:00 +22°C° 0 mm 3 mps 732 mmHg 83%
23:00 +22°C° 0 mm 4 mps 732 mmHg 82%

Day after tomorrow, 8 July, Wednesday

Time Temperature Precipitation Wind Pressure Humidity
00:00 +22°C° 0 mm 4 mps 732 mmHg 79%
01:00 +22°C° 0 mm 4 mps 731 mmHg 76%
02:00 +21°C° 0 mm 4 mps 731 mmHg 73%
03:00 +21°C° 0 mm 3 mps 731 mmHg 78%
04:00 +21°C° 0 mm 2 mps 731 mmHg 83%
05:00 +21°C° 0 mm 1 mps 731 mmHg 88%
06:00 +22°C° 0.3 mm 1 mps 732 mmHg 88%
07:00 +21°C° 0.3 mm 2 mps 732 mmHg 88%
08:00 +23°C° 0.3 mm 2 mps 732 mmHg 88%
09:00 +24°C° 0 mm 3 mps 733 mmHg 86%
10:00 +24°C° 0 mm 3 mps 733 mmHg 84%
11:00 +25°C° 0 mm 4 mps 733 mmHg 82%
12:00 +24°C° 0.1 mm 3 mps 734 mmHg 84%
13:00 +24°C° 0.1 mm 3 mps 734 mmHg 86%
14:00 +22°C° 0.1 mm 3 mps 734 mmHg 88%
15:00 +22°C° 0.2 mm 3 mps 734 mmHg 88%
16:00 +21°C° 0.2 mm 3 mps 735 mmHg 88%
17:00 +21°C° 0.2 mm 3 mps 735 mmHg 88%
18:00 +20°C° 0.1 mm 4 mps 735 mmHg 89%
19:00 +19°C° 0.1 mm 4 mps 735 mmHg 91%
20:00 +19°C° 0.1 mm 5 mps 735 mmHg 92%
21:00 +18°C° 0.3 mm 4 mps 735 mmHg 93%
22:00 +17°C° 0.3 mm 3 mps 735 mmHg 94%
23:00 +17°C° 0.3 mm 3 mps 735 mmHg 96%

9 July, Thursday

Time Temperature Precipitation Wind Pressure Humidity
00:00 +16°C° 0.9 mm 3 mps 735 mmHg 96%
01:00 +15°C° 0.9 mm 4 mps 735 mmHg 97%
02:00 +15°C° 0.9 mm 4 mps 735 mmHg 97%
03:00 +14°C° 0.3 mm 4 mps 735 mmHg 97%
04:00 +14°C° 0.3 mm 4 mps 735 mmHg 97%
05:00 +14°C° 0.3 mm 4 mps 735 mmHg 96%
06:00 +14°C° 0.8 mm 4 mps 735 mmHg 96%
07:00 +15°C° 0.8 mm 5 mps 735 mmHg 95%
08:00 +15°C° 0.8 mm 5 mps 735 mmHg 95%
09:00 +15°C° 1.4 mm 5 mps 735 mmHg 95%
10:00 +14°C° 1.4 mm 6 mps 735 mmHg 94%
11:00 +14°C° 1.4 mm 6 mps 735 mmHg 94%
12:00 +14°C° 2.5 mm 6 mps 735 mmHg 94%
13:00 +13°C° 2.5 mm 6 mps 735 mmHg 94%
14:00 +13°C° 2.5 mm 6 mps 735 mmHg 94%
15:00 +14°C° 0.2 mm 5 mps 736 mmHg 92%
16:00 +14°C° 0.2 mm 5 mps 736 mmHg 89%
17:00 +15°C° 0.2 mm 5 mps 736 mmHg 87%
18:00 +14°C° 0 mm 4 mps 736 mmHg 89%
19:00 +13°C° 0 mm 3 mps 737 mmHg 92%
20:00 +14°C° 0 mm 2 mps 737 mmHg 94%
21:00 +13°C° 0 mm 2 mps 737 mmHg 94%
22:00 +12°C° 0 mm 3 mps 738 mmHg 95%
23:00 +12°C° 0 mm 3 mps 738 mmHg 96%

10 July, Friday

Time Temperature Precipitation Wind Pressure Humidity
00:00 +12°C° 0 mm 3 mps 738 mmHg 95%
01:00 +11°C° 0 mm 3 mps 738 mmHg 95%
02:00 +11°C° 0 mm 4 mps 738 mmHg 95%
03:00 +11°C° 0 mm 4 mps 738 mmHg 94%
04:00 +11°C° 0 mm 4 mps 739 mmHg 94%
05:00 +12°C° 0 mm 4 mps 739 mmHg 93%
06:00 +13°C° 0 mm 5 mps 739 mmHg 88%
07:00 +15°C° 0 mm 5 mps 739 mmHg 82%
08:00 +16°C° 0 mm 5 mps 740 mmHg 77%
09:00 +17°C° 0 mm 5 mps 740 mmHg 73%
10:00 +19°C° 0 mm 5 mps 740 mmHg 68%
11:00 +20°C° 0 mm 6 mps 741 mmHg 64%
12:00 +20°C° 0 mm 6 mps 741 mmHg 63%
13:00 +20°C° 0 mm 6 mps 741 mmHg 63%
14:00 +21°C° 0 mm 6 mps 741 mmHg 62%
15:00 +21°C° 0 mm 5 mps 741 mmHg 66%
16:00 +20°C° 0 mm 4 mps 741 mmHg 69%
17:00 +20°C° 0 mm 3 mps 741 mmHg 73%
18:00 +19°C° 0 mm 3 mps 741 mmHg 76%
19:00 +17°C° 0 mm 3 mps 742 mmHg 79%
20:00 +15°C° 0 mm 2 mps 742 mmHg 82%
21:00 +15°C° 0 mm 2 mps 742 mmHg 84%
22:00 +14°C° 0 mm 2 mps 742 mmHg 87%
23:00 +14°C° 0 mm 2 mps 742 mmHg 90%

11 July, Saturday

Time Temperature Precipitation Wind Pressure Humidity
00:00 +13°C° 0 mm 2 mps 742 mmHg 90%
01:00 +13°C° 0 mm 2 mps 742 mmHg 91%
02:00 +12°C° 0 mm 3 mps 742 mmHg 92%
03:00 +12°C° 0 mm 3 mps 742 mmHg 91%
04:00 +12°C° 0 mm 3 mps 742 mmHg 89%
05:00 +12°C° 0 mm 3 mps 742 mmHg 88%
06:00 +14°C° 0 mm 4 mps 742 mmHg 84%
07:00 +16°C° 0 mm 5 mps 742 mmHg 81%
08:00 +19°C° 0 mm 5 mps 742 mmHg 77%
09:00 +20°C° 0 mm 6 mps 742 mmHg 75%
10:00 +20°C° 0 mm 6 mps 742 mmHg 74%
11:00 +21°C° 0 mm 7 mps 742 mmHg 72%
12:00 +22°C° 0 mm 7 mps 742 mmHg 72%
13:00 +23°C° 0 mm 7 mps 741 mmHg 72%
14:00 +23°C° 0 mm 7 mps 741 mmHg 72%
15:00 +23°C° 0.1 mm 6 mps 741 mmHg 75%
16:00 +23°C° 0.1 mm 6 mps 741 mmHg 78%
17:00 +22°C° 0.1 mm 5 mps 741 mmHg 81%
18:00 +21°C° 0.5 mm 5 mps 741 mmHg 84%
19:00 +21°C° 0.5 mm 5 mps 741 mmHg 86%
20:00 +20°C° 0.5 mm 5 mps 741 mmHg 89%
21:00 +19°C° 0.5 mm 4 mps 741 mmHg 91%
22:00 +19°C° 0.5 mm 4 mps 741 mmHg 93%
23:00 +18°C° 0.5 mm 4 mps 741 mmHg 96%
Show more